Time,TemperatureF,DewpointF,PressureIn,WindDirection,WindDirectionDegrees,WindSpeedMPH,WindSpeedGustMPH,Humidity,HourlyPrecipIn,Conditions,Clouds,dailyrainin,SoftwareType,DateUTC
2013-07-27 00:05:00,68.2,61.8,30.03,SSW,193,0.0,0.0,80,0.00,,,0.00,Wunderground v.1.15,2013-07-27 04:05:00,
2013-07-27 00:10:00,68.1,61.7,30.03,SSW,193,0.0,0.0,80,0.00,,,0.00,Wunderground v.1.15,2013-07-27 04:10:00,
2013-07-27 13:20:00,81.3,72.6,29.96,SE,131,0.0,0.0,75,0.00,,,0.00,Wunderground v.1.15,2013-07-27 17:20:00,
2013-07-27 13:25:00,81.2,72.5,29.96,SE,131,0.0,0.0,75,0.00,,,0.00,Wunderground v.1.15,2013-07-27 17:25:00,
2013-07-27 13:30:00,81.3,73.0,29.95,SE,131,0.0,0.0,76,0.00,,,0.00,Wunderground v.1.15,2013-07-27 17:30:00,
2013-07-27 13:40:00,81.9,72.4,29.95,SE,131,0.0,0.0,73,0.00,,,0.00,Wunderground v.1.15,2013-07-27 17:40:00,
2013-07-27 13:45:00,82.0,72.1,29.95,SE,131,0.0,0.0,72,0.00,,,0.00,Wunderground v.1.15,2013-07-27 17:45:00,
2013-07-27 13:50:00,82.0,72.1,29.95,ESE,120,0.0,0.0,72,0.00,,,0.00,Wunderground v.1.15,2013-07-27 17:50:00,
2013-07-27 14:00:00,82.1,72.2,29.94,ESE,120,0.0,0.0,72,0.00,,,0.00,Wunderground v.1.15,2013-07-27 18:00:00,
2013-07-27 14:10:00,82.4,73.3,29.93,ENE,75,0.0,0.0,74,0.00,,,0.00,Wunderground v.1.15,2013-07-27 18:10:00,
2013-07-27 14:20:00,82.0,73.3,29.93,ENE,75,0.0,0.0,75,0.00,,,0.00,Wunderground v.1.15,2013-07-27 18:20:00,
2013-07-27 14:25:00,81.9,72.4,29.93,ENE,75,0.0,0.0,73,0.00,,,0.00,Wunderground v.1.15,2013-07-27 18:25:00,
2013-07-27 14:30:00,81.7,71.8,29.93,ENE,68,0.0,0.0,72,0.00,,,0.00,Wunderground v.1.15,2013-07-27 18:30:00,
2013-07-27 14:40:00,82.4,72.9,29.93,ENE,68,0.0,0.0,73,0.00,,,0.00,Wunderground v.1.15,2013-07-27 18:40:00,
2013-07-27 14:45:00,82.7,73.2,29.94,ENE,68,0.0,0.0,73,0.00,,,0.00,Wunderground v.1.15,2013-07-27 18:45:00,
2013-07-27 14:50:00,82.7,73.6,29.93,ENE,68,0.0,0.0,74,0.00,,,0.00,Wunderground v.1.15,2013-07-27 18:50:00,
2013-07-27 14:55:00,82.6,73.5,29.93,ENE,68,0.0,0.0,74,0.00,,,0.00,Wunderground v.1.15,2013-07-27 18:55:00,
2013-07-27 15:00:00,82.7,73.2,29.93,ENE,68,0.0,0.0,73,0.00,,,0.00,Wunderground v.1.15,2013-07-27 19:00:00,
2013-07-27 15:10:00,82.6,73.1,29.93,ENE,68,0.0,0.0,73,0.00,,,0.00,Wunderground v.1.15,2013-07-27 19:10:00,
2013-07-27 15:15:00,82.3,73.2,29.93,ENE,68,0.0,0.0,74,0.00,,,0.00,Wunderground v.1.15,2013-07-27 19:15:00,
2013-07-27 15:25:00,81.9,73.2,29.93,ENE,68,0.0,0.0,75,0.00,,,0.00,Wunderground v.1.15,2013-07-27 19:25:00,
2013-07-27 15:30:00,81.6,73.3,29.93,ENE,68,0.0,0.0,76,0.00,,,0.00,Wunderground v.1.15,2013-07-27 19:30:00,
2013-07-27 15:40:00,80.3,72.4,29.93,ENE,71,0.0,0.0,77,0.00,,,0.00,Wunderground v.1.15,2013-07-27 19:40:00,
2013-07-27 15:45:00,80.0,72.1,29.93,ENE,71,0.0,0.0,77,0.00,,,0.00,Wunderground v.1.15,2013-07-27 19:45:00,
2013-07-27 15:50:00,79.4,71.9,29.93,ENE,71,0.0,0.0,78,0.00,,,0.00,Wunderground v.1.15,2013-07-27 19:50:00,
2013-07-27 15:55:00,78.8,71.4,29.93,ENE,71,0.0,0.0,78,0.00,,,0.00,Wunderground v.1.15,2013-07-27 19:55:00,
2013-07-27 16:05:00,78.4,71.3,29.92,ENE,70,0.0,0.0,79,0.00,,,0.00,Wunderground v.1.15,2013-07-27 20:05:00,
2013-07-27 16:10:00,78.3,71.2,29.92,ENE,71,0.0,0.0,79,0.00,,,0.00,Wunderground v.1.15,2013-07-27 20:10:00,
2013-07-27 16:15:00,78.0,71.0,29.92,ENE,71,0.0,0.0,79,0.00,,,0.00,Wunderground v.1.15,2013-07-27 20:15:00,
2013-07-27 16:25:00,77.1,70.1,29.93,NW,305,1.0,2.0,79,0.00,,,0.00,Wunderground v.1.15,2013-07-27 20:25:00,
2013-07-27 16:30:00,76.3,68.9,29.93,SW,229,1.0,2.0,78,0.00,,,0.00,Wunderground v.1.15,2013-07-27 20:30:00,
2013-07-27 16:45:00,73.5,66.6,29.94,South,191,1.0,1.0,79,0.00,,,0.00,Wunderground v.1.15,2013-07-27 20:45:00,
2013-07-27 16:50:00,72.8,66.3,29.94,South,184,0.0,1.0,80,0.00,,,0.00,Wunderground v.1.15,2013-07-27 20:50:00,
2013-07-27 16:55:00,72.3,65.4,29.94,South,185,0.0,0.0,79,0.00,,,0.00,Wunderground v.1.15,2013-07-27 20:55:00,
2013-07-27 17:00:00,71.9,65.0,29.94,SSE,152,0.0,0.0,79,0.00,,,0.01,Wunderground v.1.15,2013-07-27 21:00:00,
2013-07-27 17:10:00,71.2,64.4,29.96,SW,235,0.0,0.0,79,0.17,,,0.04,Wunderground v.1.15,2013-07-27 21:10:00,
2013-07-27 17:15:00,70.8,64.0,29.96,SW,233,0.0,0.0,79,0.17,,,0.05,Wunderground v.1.15,2013-07-27 21:15:00,
2013-07-27 17:25:00,70.5,63.7,29.97,SSW,210,0.0,0.0,79,0.08,,,0.07,Wunderground v.1.15,2013-07-27 21:25:00,
2013-07-27 17:30:00,70.2,63.4,29.97,South,176,0.0,0.0,79,0.08,,,0.07,Wunderground v.1.15,2013-07-27 21:30:00,
2013-07-27 17:35:00,70.1,63.6,29.97,South,177,0.0,0.0,80,0.10,,,0.08,Wunderground v.1.15,2013-07-27 21:35:00,
2013-07-27 17:45:00,69.8,63.3,29.97,SW,221,0.0,0.0,80,0.13,,,0.11,Wunderground v.1.15,2013-07-27 21:45:00,
2013-07-27 17:50:00,69.8,63.3,29.97,SW,221,0.0,0.0,80,0.21,,,0.13,Wunderground v.1.15,2013-07-27 21:50:00,
2013-07-27 17:55:00,69.7,63.3,29.96,SSE,167,0.0,0.0,80,0.40,,,0.16,Wunderground v.1.15,2013-07-27 21:55:00,
2013-07-27 18:05:00,69.5,63.1,29.94,SSE,167,0.0,0.0,80,0.18,,,0.19,Wunderground v.1.15,2013-07-27 22:05:00,
2013-07-27 18:10:00,69.5,63.1,29.95,SSE,167,0.0,0.0,80,0.31,,,0.21,Wunderground v.1.15,2013-07-27 22:10:00,
2013-07-27 18:15:00,69.4,63.0,29.95,SSE,167,0.0,0.0,80,0.32,,,0.24,Wunderground v.1.15,2013-07-27 22:15:00,
2013-07-27 18:25:00,69.4,63.0,29.95,SSE,167,0.0,0.0,80,0.29,,,0.30,Wunderground v.1.15,2013-07-27 22:25:00,
2013-07-27 18:30:00,69.5,63.4,29.95,SSE,167,0.0,0.0,81,0.44,,,0.33,Wunderground v.1.15,2013-07-27 22:30:00,
2013-07-27 18:40:00,69.4,63.3,29.95,SSE,167,0.0,0.0,81,0.33,,,0.38,Wunderground v.1.15,2013-07-27 22:40:00,
2013-07-27 18:50:00,69.4,63.3,29.94,SSE,167,0.0,0.0,81,0.19,,,0.41,Wunderground v.1.15,2013-07-27 22:50:00,
2013-07-27 18:55:00,69.5,63.4,29.94,South,179,0.0,0.0,81,0.13,,,0.42,Wunderground v.1.15,2013-07-27 22:55:00,
2013-07-27 19:00:00,69.6,63.5,29.95,South,184,0.0,0.0,81,0.09,,,0.43,Wunderground v.1.15,2013-07-27 23:00:00,
2013-07-27 19:10:00,69.5,63.4,29.94,South,184,0.0,0.0,81,0.05,,,0.43,Wunderground v.1.15,2013-07-27 23:10:00,
2013-07-27 19:20:00,69.5,63.4,29.93,South,191,0.0,0.0,81,0.00,,,0.43,Wunderground v.1.15,2013-07-27 23:20:00,
2013-07-27 19:25:00,69.6,63.5,29.92,South,191,0.0,0.0,81,0.00,,,0.43,Wunderground v.1.15,2013-07-27 23:25:00,
2013-07-27 19:30:00,69.6,63.5,29.92,South,191,0.0,0.0,81,0.00,,,0.43,Wunderground v.1.15,2013-07-27 23:30:00,
2013-07-27 19:35:00,69.7,63.6,29.92,South,191,0.0,0.0,81,0.00,,,0.43,Wunderground v.1.15,2013-07-27 23:35:00,
2013-07-27 19:45:00,69.6,63.5,29.92,ESE,121,0.0,0.0,81,0.00,,,0.43,Wunderground v.1.15,2013-07-27 23:45:00,
2013-07-27 19:50:00,69.6,63.5,29.92,ESE,121,0.0,0.0,81,0.00,,,0.43,Wunderground v.1.15,2013-07-27 23:50:00,
2013-07-27 20:00:00,69.6,63.5,29.92,ESE,121,0.0,0.0,81,0.00,,,0.43,Wunderground v.1.15,2013-07-28 00:00:00,
2013-07-27 20:10:00,69.6,63.5,29.92,ESE,122,0.0,0.0,81,0.00,,,0.43,Wunderground v.1.15,2013-07-28 00:10:00,
2013-07-27 20:15:00,69.6,63.5,29.92,ESE,121,0.0,0.0,81,0.00,,,0.43,Wunderground v.1.15,2013-07-28 00:15:00,
2013-07-27 20:25:00,69.7,63.6,29.92,ESE,121,0.0,0.0,81,0.00,,,0.43,Wunderground v.1.15,2013-07-28 00:25:00,
2013-07-27 20:35:00,69.5,63.4,29.91,ESE,122,0.0,0.0,81,0.00,,,0.43,Wunderground v.1.15,2013-07-28 00:35:00,
2013-07-27 20:40:00,69.4,63.3,29.91,ESE,121,0.0,0.0,81,0.00,,,0.43,Wunderground v.1.15,2013-07-28 00:40:00,
2013-07-27 20:50:00,69.2,63.1,29.92,ESE,122,0.0,0.0,81,0.00,,,0.43,Wunderground v.1.15,2013-07-28 00:50:00,
2013-07-27 20:55:00,69.2,63.1,29.92,ESE,122,0.0,0.0,81,0.00,,,0.43,Wunderground v.1.15,2013-07-28 00:55:00,
2013-07-27 21:00:00,69.1,63.0,29.92,ESE,122,0.0,0.0,81,0.00,,,0.43,Wunderground v.1.15,2013-07-28 01:00:00,
2013-07-27 21:10:00,69.1,63.0,29.93,ESE,122,0.0,0.0,81,0.00,,,0.43,Wunderground v.1.15,2013-07-28 01:10:00,
2013-07-27 21:15:00,69.0,62.9,29.93,ESE,122,0.0,0.0,81,0.00,,,0.43,Wunderground v.1.15,2013-07-28 01:15:00,
2013-07-27 21:25:00,69.0,62.9,29.93,ESE,122,0.0,0.0,81,0.00,,,0.43,Wunderground v.1.15,2013-07-28 01:25:00,
2013-07-27 21:30:00,69.0,62.9,29.93,ESE,123,0.0,0.0,81,0.00,,,0.43,Wunderground v.1.15,2013-07-28 01:30:00,
2013-07-27 21:35:00,69.0,62.9,29.94,ESE,122,0.0,0.0,81,0.00,,,0.43,Wunderground v.1.15,2013-07-28 01:35:00,
2013-07-27 21:45:00,68.9,62.8,29.94,ESE,122,0.0,0.0,81,0.00,,,0.43,Wunderground v.1.15,2013-07-28 01:45:00,
2013-07-27 21:55:00,68.9,62.8,29.94,ESE,122,0.0,0.0,81,0.00,,,0.43,Wunderground v.1.15,2013-07-28 01:55:00,
2013-07-27 22:00:00,68.9,62.8,29.94,ESE,122,0.0,0.0,81,0.00,,,0.43,Wunderground v.1.15,2013-07-28 02:00:00,
2013-07-27 22:10:00,68.9,62.8,29.94,ESE,122,0.0,0.0,81,0.00,,,0.43,Wunderground v.1.15,2013-07-28 02:10:00,
2013-07-27 22:15:00,68.9,62.8,29.94,SE,124,0.0,0.0,81,0.00,,,0.43,Wunderground v.1.15,2013-07-28 02:15:00,
2013-07-27 22:25:00,68.9,62.8,29.95,SE,124,0.0,0.0,81,0.00,,,0.43,Wunderground v.1.15,2013-07-28 02:25:00,
2013-07-27 22:30:00,68.9,62.8,29.95,SSE,159,0.0,0.0,81,0.00,,,0.43,Wunderground v.1.15,2013-07-28 02:30:00,
2013-07-27 22:35:00,69.0,62.9,29.95,SSE,159,0.0,0.0,81,0.00,,,0.43,Wunderground v.1.15,2013-07-28 02:35:00,
2013-07-27 22:45:00,68.9,62.8,29.95,SSE,159,0.0,0.0,81,0.00,,,0.43,Wunderground v.1.15,2013-07-28 02:45:00,
2013-07-27 22:50:00,68.9,62.8,29.94,SSE,160,0.0,0.0,81,0.00,,,0.43,Wunderground v.1.15,2013-07-28 02:50:00,
2013-07-27 22:55:00,68.9,62.8,29.94,SSE,160,0.0,0.0,81,0.00,,,0.43,Wunderground v.1.15,2013-07-28 02:55:00,
2013-07-27 23:00:00,69.0,62.9,29.93,SSE,159,0.0,0.0,81,0.00,,,0.43,Wunderground v.1.15,2013-07-28 03:00:00,
2013-07-27 23:10:00,69.0,62.9,29.93,SSE,159,0.0,0.0,81,0.00,,,0.43,Wunderground v.1.15,2013-07-28 03:10:00,
2013-07-27 23:15:00,68.9,62.8,29.92,SSE,159,0.0,0.0,81,0.00,,,0.43,Wunderground v.1.15,2013-07-28 03:15:00,
2013-07-27 23:25:00,68.9,62.8,29.92,SSE,160,0.0,0.0,81,0.00,,,0.43,Wunderground v.1.15,2013-07-28 03:25:00,
2013-07-27 23:30:00,68.9,62.8,29.93,SSE,159,0.0,0.0,81,0.00,,,0.43,Wunderground v.1.15,2013-07-28 03:30:00,
2013-07-27 23:40:00,68.8,62.7,29.94,SSE,159,0.0,0.0,81,0.00,,,0.43,Wunderground v.1.15,2013-07-28 03:40:00,
2013-07-27 23:45:00,68.8,62.7,29.94,SSE,159,0.0,0.0,81,0.00,,,0.43,Wunderground v.1.15,2013-07-28 03:45:00,
2013-07-27 23:50:00,68.7,62.6,29.94,SSE,159,0.0,0.0,81,0.00,,,0.43,Wunderground v.1.15,2013-07-28 03:50:00,
2013-07-27 23:55:00,68.8,62.7,29.94,SSE,159,0.0,0.0,81,0.00,,,0.43,Wunderground v.1.15,2013-07-28 03:55:00,